Temp
27 27 26 25 23 22 23 27 31 33 34 34 34 32 30 31 31 27 28 31 29 27 25 25 26 26 25 25 25 24 24 24 24 23 23 23 23 22 22 21 21 21 21 20 20 20 21 20 21
27 27 26 23 23 23 25 30 30 33 34 34 34 32 31 30 30 28 26 27 28 27 25 25 25 25 25 25 24 24 24 23 23 23 23 23 22 22 21 21 21 21 21 21 20 20 20 20 20
26 25 23 22 22 23 25 30 32 33 34 36 34 33 32 30 29 29 28 27 28 26 25 25 25 25 25 24 24 24 24 23 23 23 23 23 22 21 21 21 21 21 21 21 20 20 20 20 20
26 24 23 24 24 26 28 31 34 33 35 35 32 31 32 32 31 30 28 27 27 25 25 25 25 25 25 24 24 24 24 23 23 23 22 22 22 21 21 21 21 21 21 21 21 20 20 20 20
26 22 22 23 24 28 30 33 35 35 34 36 35 30 29 30 30 30 28 27 27 25 25 25 25 25 24 24 24 24 23 23 23 22 22 22 22 21 20 20 21 20 20 21 20 20 20 20 20
22 22 22 22 25 29 31 32 35 36 34 35 32 30 29 30 30 30 30 28 27 26 25 25 24 25 24 24 24 23 23 23 23 22 22 22 21 21 20 20 20 20 20 20 20 20 20 20 20
23 22 22 23 26 29 31 33 34 35 34 35 35 30 29 29 31 30 30 29 27 26 25 25 24 24 24 24 23 23 23 23 22 22 21 21 21 20 20 20 20 20 20 20 20 20 20 20 20
24 22 23 25 26 28 31 34 34 34 33 35 35 30 29 29 31 30 29 28 26 25 25 24 23 23 23 23 23 23 23 22 22 22 21 21 21 20 20 20 20 20 20 20 20 20 20 20 20
26 22 23 24 26 29 31 33 34 35 33 35 33 30 30 30 30 29 27 25 24 24 24 24 23 23 23 23 23 22 22 22 22 21 21 21 20 20 19 20 20 20 20 20 20 20 20 20 20
24 21 23 26 28 28 30 29 32 34 33 34 30 31 31 30 28 26 25 25 24 23 23 24 23 22 22 22 22 22 21 21 21 21 21 21 20 20 20 20 20 19 19 19 19 20 20 20 20
24 24 25 27 29 29 29 28 31 32 31 32 31 29 29 29 28 27 26 26 26 24 23 23 23 22 22 21 22 21 21 21 21 21 21 21 20 19 19 19 19 19 19 19 19 19 19 19 20
23 25 27 27 29 28 28 28 30 31 31 32 31 30 29 28 28 27 27 26 25 24 23 23 22 22 22 21 21 21 21 21 20 20 20 20 20 19 19 19 19 19 19 19 19 19 19 19 20
24 25 27 28 28 28 28 28 29 29 29 29 31 33 31 28 27 30 31 29 26 24 23 23 22 22 22 21 21 21 21 21 21 20 19 20 20 20 19 19 19 19 19 19 19 19 19 19 19
25 26 27 27 28 28 28 28 29 29 29 29 30 29 30 29 28 31 33 33 27 25 24 23 23 22 22 22 21 21 21 21 20 20 20 20 20 20 20 19 19 19 19 19 19 19 19 19 19
26 24 25 26 26 26 27 26 27 28 29 29 28 27 29 28 30 29 33 33 29 26 24 23 23 23 22 22 21 21 20 20 20 20 20 20 19 20 19 19 19 19 19 19 19 19 19 19 19
23 23 23 26 26 27 27 26 27 27 27 27 27 27 28 28 28 31 33 32 32 27 24 23 23 23 22 22 22 22 20 20 20 20 20 20 20 20 19 19 19 19 19 19 19 19 18 18 18
21 20 22 24 26 26 26 26 27 28 28 27 27 28 28 26 26 32 32 33 32 27 24 23 22 22 22 22 21 21 20 20 19 20 20 19 19 19 19 19 19 19 19 18 18 18 18 18 18
20 21 21 22 26 26 26 26 27 28 28 29 28 25 26 29 27 30 32 32 32 29 26 23 22 22 22 21 21 21 20 19 19 19 20 20 20 19 19 19 19 18 18 18 18 18 18 17 17
22 22 23 24 25 25 26 26 26 27 26 27 27 25 26 26 26 30 31 32 31 31 26 23 22 21 21 20 20 20 19 19 19 19 19 20 19 19 19 18 18 18 18 18 18 17 17 17 17
21 21 21 23 25 26 26 26 25 26 27 27 26 26 26 26 28 27 26 29 30 29 26 23 22 21 21 21 20 19 19 19 19 19 19 19 19 19 19 18 18 18 17 17 17 17 17 16 16
21 21 22 22 24 25 25 24 24 27 26 27 28 27 27 27 26 25 23 26 28 29 26 23 22 21 21 20 20 20 20 19 19 18 18 18 19 18 18 18 18 17 18 17 17 16 16 15 15
20 23 23 23 23 22 25 22 24 25 25 26 26 26 27 29 26 25 23 22 26 28 28 24 23 21 21 20 20 20 19 18 18 17 18 18 17 18 18 18 17 17 17 16 15 15 14 13 13
21 23 23 23 22 22 23 22 24 26 25 26 27 26 27 29 29 28 24 24 25 26 26 22 22 21 20 19 20 19 18 18 17 17 17 16 17 17 17 17 16 16 15 14 14 13 13 12 12
23 22 22 22 22 20 23 23 23 23 25 26 27 28 26 26 28 29 24 25 24 25 23 21 20 18 18 18 19 19 18 17 16 16 17 16 16 16 16 15 15 14 14 13 12 12 11 11 10
22 21 19 19 19 19 23 22 24 24 26 26 27 26 26 25 23 24 22 23 23 22 20 18 18 17 18 18 18 18 18 17 17 17 16 16 16 15 15 14 14 13 12 11 11 11 10 9 9
21 22 19 17 18 20 23 21 23 26 26 27 27 26 26 25 24 22 22 23 22 18 17 17 16 16 16 17 17 17 17 16 15 16 16 16 16 15 14 13 13 12 11 10 10 9 9 8 8
21 20 23 20 20 19 21 22 24 25 25 26 26 27 27 25 23 23 20 21 20 18 17 16 15 15 15 16 16 16 16 15 16 16 16 16 15 14 13 12 12 11 10 9 9 8 7 6 6
20 22 19 19 17 17 20 21 21 23 24 25 25 26 26 24 23 21 21 20 20 18 17 16 16 16 16 15 16 15 15 16 16 16 15 14 13 13 12 11 10 10 9 8 7 6 6 5 5
20 20 20 20 18 15 17 19 22 23 23 22 22 25 23 22 22 21 20 21 20 17 16 16 16 15 15 15 15 15 16 16 15 15 14 13 13 12 11 9 9 8 7 6 6 5 4 3 3
17 18 19 17 17 15 16 17 22 23 24 24 23 23 23 24 23 22 19 19 18 17 16 16 15 15 15 15 15 15 15 14 14 13 13 12 11 10 9 8 8 7 6 5 4 3 2 2 2
Height
777 776 777 778 805 803 805 775 745 745 732 717 714 727 748 746 761 791 756 757 761 766 772 776 780 784 787 790 794 798 801 804 808 810 812 813 815 817 819 821 823 824 826 827 828 828 829 829 829
776 776 775 781 810 822 799 750 757 736 720 710 715 726 739 759 744 751 756 760 761 766 771 775 780 784 787 790 794 798 801 804 808 811 813 815 817 818 820 821 823 825 826 828 828 829 830 831 831
776 778 785 795 806 813 797 751 740 725 714 714 723 721 736 753 746 748 752 757 762 767 771 775 780 783 787 790 794 798 801 804 808 811 813 815 817 819 820 821 823 825 826 828 829 830 831 831 832
777 777 779 797 802 778 768 753 732 728 718 715 724 742 734 738 742 747 754 758 762 767 772 776 780 783 786 789 793 797 801 804 808 811 814 816 818 820 821 822 823 825 826 828 829 830 831 832 832
779 781 801 800 791 764 747 737 723 727 725 723 724 748 747 740 742 748 755 759 761 766 772 776 780 782 786 789 793 796 800 804 807 811 814 816 818 820 822 823 824 825 826 827 829 830 831 832 833
788 780 807 812 787 755 741 730 719 722 723 723 735 742 748 742 743 749 755 758 760 764 770 775 779 782 785 789 792 795 799 803 806 810 813 815 817 820 822 824 824 825 826 827 828 830 831 832 833
789 795 804 797 781 762 745 722 725 724 727 726 719 746 746 742 743 746 753 758 761 764 768 772 777 781 785 788 792 794 797 801 804 808 811 814 817 819 821 823 824 825 825 826 827 829 831 832 832
775 786 795 786 782 768 738 723 717 722 731 712 712 745 751 742 744 746 751 758 762 765 768 771 775 779 783 787 791 794 796 799 803 806 809 813 815 818 820 822 823 824 825 825 826 827 828 830 831
765 795 796 788 775 757 732 738 715 711 723 720 721 725 729 739 744 748 752 759 763 766 767 770 773 777 781 785 789 792 795 798 802 804 807 810 813 816 818 820 822 822 824 825 825 827 827 828 829
775 792 784 765 751 753 742 745 724 723 727 729 733 730 733 738 743 747 751 756 760 761 763 766 768 773 778 782 786 789 792 795 798 801 803 807 811 814 816 818 820 822 822 824 825 826 826 827 827
767 776 765 755 743 743 745 743 729 730 737 728 737 732 731 734 739 743 746 748 749 754 759 762 765 769 773 778 782 786 789 792 796 798 800 804 808 811 814 816 817 819 821 822 824 825 825 825 825
772 758 754 750 737 742 746 737 737 729 731 720 719 721 722 728 731 736 740 742 747 751 754 758 762 766 770 774 778 782 785 789 792 795 798 801 804 809 811 813 815 817 819 820 821 823 824 825 826
762 755 747 741 737 735 734 738 737 731 721 719 719 716 723 726 727 728 730 734 739 745 748 752 757 762 766 770 774 778 781 785 789 793 796 798 802 805 808 810 812 815 817 818 819 820 821 823 824
750 749 744 738 736 731 737 735 730 727 719 719 720 721 719 721 724 725 726 729 733 737 742 747 752 757 762 765 769 774 779 783 787 790 793 795 798 802 806 808 810 812 814 816 818 819 819 821 822
745 754 745 738 736 737 731 739 735 724 719 723 722 722 719 719 717 718 721 724 727 732 736 742 747 752 758 762 767 770 775 779 784 786 790 794 797 800 802 806 808 810 812 814 816 817 818 818 819
753 752 760 735 734 731 738 748 729 721 725 726 723 720 718 714 714 714 716 718 721 727 733 738 743 747 754 757 762 767 772 777 780 785 788 791 795 798 800 803 806 808 809 811 812 813 814 815 815
757 765 754 745 727 733 737 738 727 718 721 724 721 718 715 714 710 707 710 713 718 722 728 734 739 743 749 753 757 763 769 774 777 781 785 789 792 795 798 800 804 806 807 809 810 810 811 813 814
758 756 755 751 734 731 735 727 719 714 713 713 713 715 712 707 705 702 704 707 712 719 724 730 734 740 745 750 755 761 765 771 774 777 782 786 789 792 795 797 799 802 804 806 808 810 809 809 810
745 746 747 734 728 735 731 725 723 712 710 709 708 709 707 704 696 693 696 700 706 714 722 728 733 736 741 747 750 756 759 766 771 774 778 782 786 790 792 795 797 799 801 803 805 807 808 808 808
747 752 746 733 726 727 727 727 719 712 705 702 704 703 701 699 694 694 694 696 700 708 715 724 729 732 736 740 744 748 755 763 768 772 776 780 782 786 789 792 794 796 798 800 802 803 803 804 805
737 741 735 737 731 720 725 731 721 705 701 693 691 692 690 693 695 697 693 691 696 701 708 715 723 727 731 735 740 746 755 762 767 770 774 777 779 782 785 788 792 795 797 798 800 802 802 802 803
737 719 725 726 737 744 722 747 724 710 704 696 691 692 689 684 687 688 691 689 690 695 699 705 712 719 725 729 734 738 745 754 759 764 770 775 777 779 781 785 789 792 795 797 799 800 801 802 802
715 723 721 722 731 732 731 741 705 703 704 698 692 688 683 677 676 679 685 684 682 688 692 697 703 710 717 725 730 735 742 749 755 761 767 773 776 777 780 783 787 789 793 793 796 798 799 800 801
707 719 718 717 726 744 719 728 702 709 700 695 686 681 679 676 669 666 671 675 680 682 688 694 702 710 715 721 728 733 739 745 751 757 762 769 774 776 780 782 784 787 789 791 793 793 795 795 796
702 719 736 741 739 732 707 721 704 687 684 682 681 676 669 667 668 664 665 669 674 678 683 690 696 705 713 718 725 730 735 743 746 752 758 765 771 776 777 782 782 783 787 789 791 790 792 793 791
700 703 721 737 731 717 699 717 701 671 673 668 665 666 666 665 662 661 654 660 666 672 678 686 693 700 707 715 721 728 732 740 745 749 755 761 768 772 773 780 782 781 784 786 787 788 789 790 789
690 697 684 707 704 715 700 693 683 666 667 663 663 660 657 658 658 659 656 657 663 671 676 682 690 699 706 712 718 725 731 737 742 749 755 760 764 770 773 776 776 779 781 783 784 785 786 785 785
680 677 701 699 717 718 697 690 694 670 662 659 660 656 651 652 651 650 651 652 657 664 672 681 688 695 702 708 714 721 729 735 741 747 752 757 761 766 769 772 776 775 779 780 780 781 782 781 781
678 678 677 682 692 712 710 686 663 658 657 660 656 646 650 650 648 646 646 649 655 664 671 678 684 691 700 708 715 720 726 734 739 744 749 755 759 763 767 770 771 774 776 777 778 778 778 777 777
682 678 679 692 692 694 694 686 651 652 640 645 650 648 645 644 643 642 646 649 655 660 668 673 680 686 692 700 710 720 726 732 737 742 747 753 756 761 764 767 769 770 772 773 774 775 774 774 775
Wind_Speed
10 12 15 6 3 3 6 10 12 10 5 4 10 16 12 3 7 5 14 16 28 35 32 28 24 23 23 23 22 20 17 15 14 13 11 11 11 11 11 10 9 8 8 8 7 7 8 9 9
11 13 5 3 3 0 7 9 9 5 6 9 13 14 7 5 7 10 15 28 29 34 32 28 25 23 22 23 23 20 18 15 14 13 11 10 10 10 10 9 8 8 7 7 7 7 7 7 7
13 8 2 4 4 6 6 6 3 5 8 4 6 11 7 6 10 7 25 27 24 31 30 28 24 23 22 23 23 20 18 16 14 14 12 10 10 9 9 9 8 7 7 7 6 6 6 6 6
5 3 4 1 10 13 13 16 2 6 6 7 11 9 7 22 8 21 30 27 24 29 27 26 24 22 22 22 23 21 19 17 15 15 13 11 10 9 9 8 7 7 7 7 6 5 5 4 4
5 3 2 4 9 13 13 8 4 3 7 3 4 6 6 9 33 33 32 26 24 25 24 26 24 22 22 22 23 22 20 18 17 16 14 12 11 10 8 8 7 7 7 7 6 6 4 4 3
3 2 2 5 12 15 11 11 5 1 5 6 7 7 6 28 31 29 28 26 26 26 23 24 23 23 22 23 23 22 21 19 18 18 15 13 12 11 9 8 7 7 6 6 6 5 4 4 3
6 1 6 9 17 19 12 5 5 2 4 5 9 6 8 12 33 31 27 25 27 27 27 25 26 24 23 22 22 22 21 20 20 19 17 14 13 12 11 10 9 8 7 6 6 5 5 5 4
4 3 8 9 12 17 7 2 7 3 4 4 4 5 9 7 33 31 29 25 26 25 24 24 27 27 25 24 22 22 21 21 21 20 18 15 14 13 13 12 10 9 8 7 7 6 6 6 6
4 3 9 11 15 15 14 8 4 3 7 4 6 6 17 29 33 31 30 29 25 22 21 21 27 29 28 26 24 22 21 21 21 21 19 17 17 15 14 13 11 10 9 8 7 7 6 6 6
5 4 8 11 18 12 12 8 6 4 6 2 7 14 27 29 28 22 21 21 27 27 25 22 29 32 30 28 27 25 24 24 24 23 22 20 18 16 16 13 13 11 10 9 8 8 7 7 7
10 13 10 16 19 13 15 10 6 2 2 7 8 13 14 18 21 21 24 31 36 33 28 26 28 32 32 29 28 27 27 26 25 25 24 22 20 17 15 15 15 14 14 12 11 10 10 10 8
9 12 13 13 21 10 9 8 10 2 6 6 9 13 14 10 15 17 22 28 27 33 33 30 28 31 31 29 27 30 30 29 28 27 25 24 22 20 22 20 22 18 15 13 13 10 7 6 5
17 15 15 16 18 12 10 10 7 8 10 7 10 7 8 9 11 24 31 32 34 33 36 35 33 32 31 32 32 29 30 31 30 28 26 24 24 23 22 20 20 19 15 13 11 11 10 10 10
10 15 17 17 17 13 9 10 5 7 9 11 7 9 7 11 11 11 10 16 30 38 39 41 38 36 35 30 31 31 29 27 27 27 29 27 24 24 23 22 21 19 17 15 14 14 14 13 14
16 15 15 17 10 8 8 11 11 8 8 12 11 9 9 9 13 11 20 25 22 36 41 43 40 39 38 32 32 27 30 27 26 27 27 28 27 25 23 22 21 21 20 18 18 15 13 12 13
5 6 10 14 10 9 3 19 7 9 10 13 13 11 9 12 12 21 28 29 17 37 40 42 39 38 37 38 31 30 29 27 28 27 26 27 26 24 22 20 19 16 14 14 15 15 15 15 14
6 9 12 9 10 7 9 21 10 11 11 11 12 14 13 11 11 24 21 21 19 33 39 39 38 41 38 37 30 29 28 26 26 29 26 24 22 22 21 19 15 13 14 15 13 15 13 13 14
13 11 7 12 7 9 17 24 14 13 18 20 14 10 11 15 13 19 24 21 18 17 34 39 40 41 40 36 29 27 27 27 23 24 26 27 24 21 20 19 19 17 13 12 10 10 9 8 9
14 10 18 17 14 19 19 19 11 11 11 15 15 11 10 8 12 24 27 28 22 16 28 35 35 37 40 35 32 31 31 31 25 24 24 25 24 23 22 19 17 16 15 13 11 9 7 7 6
19 20 23 19 16 11 16 17 11 9 8 7 9 8 7 6 7 5 19 28 27 22 32 34 37 40 40 37 33 29 29 27 27 24 22 23 22 22 21 19 15 15 14 14 12 9 8 9 9
23 22 23 22 11 16 11 11 9 18 13 8 6 7 6 7 8 6 10 24 29 27 27 38 38 38 38 37 33 25 25 22 25 25 25 24 23 22 19 17 17 18 16 11 7 6 4 5 7
23 22 19 21 14 16 11 14 11 9 13 12 10 9 10 15 9 8 12 12 29 34 32 43 44 42 41 40 35 35 27 23 21 26 29 25 22 22 23 20 15 12 10 7 4 3 2 4 9
27 11 21 20 16 17 14 6 20 14 16 15 11 12 14 18 20 15 16 22 32 32 35 39 44 43 41 38 36 34 25 25 26 29 28 28 23 22 19 16 12 10 7 7 6 5 5 4 6
22 18 23 19 10 12 20 17 25 12 15 12 13 15 12 12 17 19 19 28 23 32 33 38 36 32 35 36 33 33 31 29 31 34 34 27 22 19 14 12 10 8 6 4 4 4 6 7 9
23 22 15 12 14 16 20 13 18 11 19 20 19 15 14 9 9 11 11 16 22 28 31 33 35 30 33 33 33 32 34 36 38 38 34 30 23 19 17 14 12 8 5 4 5 5 7 5 4
21 24 16 19 17 18 19 17 19 20 15 21 20 17 14 11 10 9 15 18 22 27 30 30 31 30 32 34 34 33 35 35 33 38 35 29 26 22 18 14 6 7 5 5 6 6 7 10 11
19 22 23 23 19 8 11 13 17 24 21 18 20 23 23 15 10 9 9 14 20 24 27 31 31 31 32 33 32 31 33 33 37 33 30 28 25 19 15 11 9 6 4 5 7 6 6 7 8
23 10 12 6 20 27 20 19 10 19 26 26 22 21 20 11 9 9 11 16 25 29 30 31 32 32 32 31 33 33 34 36 34 33 30 26 23 18 13 10 8 3 3 2 3 3 5 8 11
15 20 17 12 11 6 17 20 19 19 14 9 8 18 9 8 10 7 9 16 24 27 29 30 32 33 31 31 31 33 37 37 36 32 27 23 20 16 13 10 7 5 5 6 6 7 8 8 10
15 17 17 15 21 5 12 10 9 20 25 19 14 8 8 6 4 4 10 14 22 28 30 32 33 35 39 40 36 34 36 36 33 29 26 22 19 15 13 10 7 6 6 4 6 5 6 6 9
Wind_Direction
287 293 309 311 41 77 259 254 227 278 70 95 82 92 103 79 152 171 125 166 148 158 159 162 162 161 162 164 166 163 159 155 150 147 140 133 129 129 124 119 115 110 107 103 97 95 96 102 104
292 309 278 255 121 287 278 251 264 225 138 102 100 93 68 77 66 122 110 145 148 158 161 162 163 162 163 167 168 167 165 163 161 156 152 145 139 137 132 128 125 119 115 107 102 98 98 104 107
295 296 62 164 205 208 241 286 184 84 88 73 82 97 98 109 109 128 146 146 148 159 163 163 164 163 166 168 169 169 169 170 170 166 163 156 152 151 146 139 135 129 126 123 116 112 115 118 117
307 352 313 189 262 261 251 286 254 86 17 36 100 73 66 153 128 135 148 147 142 159 165 166 165 166 166 168 170 172 174 175 177 176 171 166 164 166 159 152 145 140 135 130 128 128 129 134 138
270 284 251 257 262 270 273 248 45 84 126 13 72 129 84 80 126 136 142 148 147 153 166 171 169 167 168 169 173 175 179 180 181 182 179 177 174 175 173 166 161 153 145 139 142 143 152 163 173
303 127 320 276 274 276 285 236 128 347 157 177 84 108 110 131 129 141 147 152 156 157 159 170 174 171 172 174 177 179 182 183 185 185 185 183 182 178 181 182 176 171 159 150 154 160 169 186 206
208 283 255 265 271 290 301 215 104 223 126 177 136 118 153 138 140 141 144 154 159 162 165 170 177 178 177 178 181 183 186 187 187 187 189 188 188 186 186 188 186 182 175 169 171 174 185 206 222
201 145 273 267 278 282 295 260 164 169 45 299 107 150 171 156 140 134 135 147 153 158 167 176 179 182 182 181 185 188 190 191 189 189 191 191 192 196 188 190 189 191 194 185 188 189 197 209 223
285 268 255 261 271 274 296 268 174 118 92 25 70 116 134 137 135 130 128 132 147 160 170 177 184 185 186 186 187 190 191 191 192 192 194 194 197 197 198 194 202 198 204 205 204 209 211 220 231
221 236 241 249 265 278 307 326 189 167 126 72 84 104 127 135 136 135 141 152 156 171 179 186 186 187 188 191 192 192 192 194 195 197 197 200 202 202 209 205 203 214 216 222 225 228 234 240 248
239 243 252 263 270 286 297 315 314 296 279 163 175 157 155 156 155 159 167 174 184 183 183 184 184 187 187 194 196 196 199 199 201 203 202 202 203 205 212 210 210 218 228 230 235 240 250 254 250
269 261 247 258 261 272 287 299 302 274 246 257 197 191 170 162 168 176 183 189 181 177 184 185 185 184 187 190 195 201 202 204 205 204 205 204 203 202 214 216 217 221 230 242 242 235 253 251 252
263 267 270 266 270 259 273 280 242 282 292 317 303 160 168 190 179 193 201 201 185 177 180 187 186 186 182 189 196 198 202 207 207 204 205 207 208 203 213 217 216 222 233 231 242 236 243 256 255
260 262 264 265 267 273 257 264 290 278 312 311 310 294 234 176 192 203 227 255 178 180 181 185 186 188 184 190 193 199 200 202 206 206 207 209 208 207 215 217 217 217 221 231 234 243 243 246 246
256 270 282 270 267 270 313 278 256 268 275 287 292 284 268 232 231 208 221 234 185 180 180 184 188 191 189 188 181 186 194 197 200 209 209 207 209 211 217 223 221 226 226 226 232 235 243 243 240
293 283 257 254 268 280 259 267 275 251 225 244 260 269 262 261 223 223 223 227 202 175 177 182 184 190 188 190 191 200 191 199 198 197 197 204 212 214 211 213 219 230 225 227 232 238 236 232 236
223 243 244 253 218 239 243 265 245 241 238 238 239 244 244 243 243 223 221 187 181 173 177 179 182 186 186 187 190 193 197 201 207 207 208 204 207 211 209 210 213 219 220 218 218 217 224 240 258
231 243 250 251 251 243 244 252 247 228 225 238 242 228 237 242 237 219 183 176 174 169 185 178 180 183 184 180 183 187 192 199 199 205 210 213 210 207 204 206 208 210 206 204 214 237 240 254 282
256 253 243 243 232 240 260 268 255 255 232 229 230 238 241 233 246 213 183 170 168 187 179 176 175 180 180 176 171 180 187 192 201 199 200 200 202 197 206 206 201 203 204 208 218 210 226 244 276
235 254 265 275 275 245 246 260 263 276 246 214 213 231 250 282 267 167 160 158 164 170 178 175 179 180 181 179 176 175 181 191 198 199 200 198 196 196 195 196 198 195 182 161 172 198 229 262 288
229 233 243 249 271 278 269 275 281 279 282 278 268 247 233 228 270 215 173 165 170 171 170 174 180 181 182 182 178 174 182 182 189 194 197 197 198 191 185 180 174 172 182 186 202 224 244 267 285
236 232 245 247 238 246 241 271 262 245 264 278 261 251 255 264 237 199 193 176 178 186 181 178 183 181 185 185 177 175 173 175 191 188 197 192 180 169 172 173 177 183 191 191 206 226 247 289 298
246 218 244 255 254 263 257 253 252 246 253 249 264 254 243 242 249 237 191 194 190 182 180 174 180 178 179 182 183 177 173 179 176 178 174 169 174 174 178 182 188 185 194 191 223 260 281 301 299
256 233 248 258 248 244 243 227 258 237 239 245 247 263 251 238 245 240 199 193 184 174 170 170 170 173 179 184 184 184 178 168 162 163 159 161 165 165 171 178 180 182 191 206 234 256 278 294 300
229 230 244 233 234 238 243 238 242 231 227 242 248 252 260 253 219 240 173 180 170 162 159 160 164 166 180 187 186 186 183 179 168 167 165 163 165 168 165 179 175 176 190 220 248 281 292 305 308
229 233 229 235 233 234 239 234 232 250 248 264 262 254 263 275 285 254 176 174 164 154 153 158 160 161 171 181 187 188 182 176 172 173 168 167 163 159 160 174 183 182 214 245 278 281 284 289 293
228 229 231 242 249 246 232 230 236 247 248 243 243 252 261 258 247 212 159 155 149 154 158 156 156 164 172 180 184 184 181 172 166 165 164 160 155 158 169 184 189 204 243 275 287 296 307 309 314
232 238 247 252 234 238 235 231 219 235 243 246 247 247 243 242 239 183 167 161 163 163 161 158 161 167 178 179 178 173 169 169 164 159 156 157 157 168 171 185 201 204 246 268 255 241 280 301 309
232 237 235 242 213 221 234 240 222 241 248 233 265 248 241 231 228 215 176 166 157 154 154 155 159 161 159 164 163 165 171 164 158 157 159 166 168 175 178 183 184 192 214 240 265 288 302 323 327
286 268 264 235 247 227 231 237 231 229 243 247 254 259 270 209 229 206 165 152 156 157 160 160 159 159 162 162 160 161 162 161 159 158 164 169 166 171 177 180 186 202 222 260 295 317 354 346 322